Weather History for Havre, MT

Change the Weather History Date:

Sunday, June 23, 2013

  Actual Average Record
Temperature  
Mean Temperature 62 °F 64 °F  
Max Temperature 76 °F 78 °F 105 °F (1941)
Min Temperature 48 °F 50 °F 36 °F (1967)
Degree Days  
Heating Degree Days 3 3  
Month to date heating degree days 113 115  
Since 1 June heating degree days 113 115  
Since 1 July heating degree days 8018 8203  
Cooling Degree Days 0 2  
Month to date cooling degree days 13 31  
Year to date cooling degree days 20 42  
Since 1 June cooling degree days 13 31  
Growing Degree Days 12 (Base 50)    
Moisture  
Dew Point 47 °F    
Average Humidity 62    
Maximum Humidity 93    
Minimum Humidity 31    
Precipitation  
Precipitation T in 0.07 in 0.97 in (1907)
Month to date precipitation 3.89 1.70  
Year to date precipitation 11.21 5.43  
Snow  
Snow 0.00 in 0.00 in 0.00 in (1999)
Month to date snowfall 0.0 0.5  
Since 1 June snowfall 0.0 0.5  
Since 1 July snowfall 50.6 39.5  
Snow Depth 0.00 in    
Sea Level Pressure  
Sea Level Pressure 29.76 in    
Wind  
Wind Speed 8 mph (SW)    
Max Wind Speed 8 mph    
Max Gust Speed 10 mph    
Visibility 10 miles    
Events      
T = Trace of Precipitation, MM = Missing Value Source: NWS Daily Summary

Daily Weather History Graph

Daily Weather History Graph

Search for Another Location

Airport:

Trip Planner

Search our weather history database for the weather conditions in past years. The results will help you decide how hot, cold, wet, or windy it might be!

Date:

Astronomy

Jun. 23, 2013 Rise Set
Actual Time 5:17 AM MDT 9:25 PM MDT
Civil Twilight 4:35 AM MDT 10:07 PM MDT
Nautical Twilight 3:35 AM MDT 11:06 PM MDT
Astronomical Twilight 1:31 AM MDT 1:08 AM MDT
Moon 9:32 PM MDT (6/23) 5:45 AM MDT (6/23)
Length of Visible Light 17h 31m
Length of Day
16h 07m
Full, 100% of the Moon is Illuminated
Jun 23
Full
Jun 29
Last Quarter
Jul 8
New
Jul 15
First Quarter
Jul 22
Full

Hourly Weather History & Observations

Time (MDT) Temp. Dew Point Humidity Pressure Visibility Wind Dir Wind Speed Gust Speed Precip Events Conditions
12:53 AM 53.1 °F 48.0 °F 83% 29.87 in 10.0 mi SW 13.8 mph - N/A   Clear
1:53 AM 55.0 °F 46.9 °F 74% 29.83 in 10.0 mi SSW 13.8 mph - N/A   Clear
2:53 AM 54.0 °F 46.9 °F 77% 29.83 in 10.0 mi SW 10.4 mph - N/A   Mostly Cloudy
3:53 AM 51.1 °F 46.0 °F 83% 29.83 in 10.0 mi WSW 5.8 mph - N/A   Clear
4:53 AM 48.0 °F 46.0 °F 93% 29.84 in 10.0 mi WSW 4.6 mph - N/A   Clear
5:53 AM 50.0 °F 46.0 °F 86% 29.83 in 10.0 mi SW 10.4 mph - N/A   Partly Cloudy
6:53 AM 53.1 °F 46.9 °F 80% 29.83 in 10.0 mi SW 9.2 mph - N/A   Clear
7:53 AM 57.9 °F 48.0 °F 70% 29.81 in 10.0 mi WSW 15.0 mph - N/A   Clear
8:53 AM 61.0 °F 48.9 °F 64% 29.81 in 10.0 mi SW 11.5 mph - N/A   Clear
9:53 AM 63.0 °F 48.9 °F 60% 29.81 in 10.0 mi SW 11.5 mph - N/A   Clear
10:53 AM 66.9 °F 48.0 °F 51% 29.79 in 10.0 mi SW 11.5 mph 16.1 mph N/A   Clear
11:53 AM 69.1 °F 48.0 °F 47% 29.78 in 10.0 mi SW 11.5 mph - N/A   Clear
12:53 PM 69.1 °F 46.9 °F 45% 29.76 in 10.0 mi WSW 10.4 mph - N/A   Mostly Cloudy
1:53 PM 73.0 °F 45.0 °F 37% 29.73 in 10.0 mi SW 5.8 mph 18.4 mph N/A   Partly Cloudy
2:53 PM 73.9 °F 43.0 °F 33% 29.72 in 10.0 mi WSW 10.4 mph 19.6 mph N/A   Scattered Clouds
3:53 PM 75.0 °F 43.0 °F 32% 29.71 in 10.0 mi West 12.7 mph 18.4 mph N/A   Scattered Clouds
4:53 PM 72.0 °F 43.0 °F 35% 29.71 in 10.0 mi West 10.4 mph 17.3 mph N/A   Partly Cloudy
5:53 PM 71.1 °F 43.0 °F 36% 29.70 in 10.0 mi West 6.9 mph - N/A   Partly Cloudy
6:53 PM 75.0 °F 43.0 °F 32% 29.68 in 10.0 mi WNW 8.1 mph - N/A   Clear
7:53 PM 71.1 °F 46.9 °F 42% 29.68 in 10.0 mi SW 5.8 mph - N/A   Clear
8:53 PM 69.1 °F 48.0 °F 47% 29.68 in 10.0 mi WSW 3.5 mph - N/A   Clear
9:53 PM 62.1 °F 53.1 °F 72% 29.69 in 10.0 mi SSE 3.5 mph - 0.00 in   Clear
10:53 PM 57.0 °F 48.9 °F 74% 29.70 in 10.0 mi Calm Calm - N/A   Clear
11:53 PM 57.9 °F 48.9 °F 72% 29.69 in 10.0 mi Calm Calm - N/A   Clear